Voltar ao catálogo

FENGYUN 1C DEB

AtivoPO
NORAD 30553·DEBRIS·🇨🇳 China

Lançado May 10, 1999 de Taiyuan Satellite Launch Center

Loading…

Próximas Passagens (próximas 24 horas)

TLE

AtualizadoSource: Space-Track

Época: Sep 14, 2026, 07:43 UTC

1 30553U 99025AKT 26257.32181162  .00011974  00000-0  14737-2 0  9993
2 30553  99.1347  33.7769 0015932   5.0599 355.0769 14.83072821 25327

Acompanhe FENGYUN 1C DEB em tempo real com AllMySat

Download on the App Store